Terminal Aerodrome Forecast
Issued by NWS King Salmon, AK

Home | Current Version | Previous Version | Text Only | Print | Product List | Glossary On
Versions: 1 2 3 4 5 6 7 8 9 10 11 12 13 14 15 16 17 18 19 20 21 22 23 24 25 26 27 28 29 30
525
FTAK31 PANC 110534
TAFAKN
TAF
PAKN 110534Z 1106/1206 04009KT P6SM SCT120
     FM111200 01012KT P6SM VCSH SCT035 BKN060
     FM111700 03010KT P6SM FEW050 BKN100=

USA.gov is the U.S. government's official web portal to all federal, state and local government web resources and services.